Tracking 18840 objects as of 20-November-2017
HD Live streaming from Space Station
objects crossing your sky now

COSMOS 2184

Track COSMOS 2184 now!
10-day predictions
COSMOS 2184 is classified as:


NORAD ID: 21937
Int'l Code: 1992-020A
Perigee: 971.6 km
Apogee: 1,019.2 km
Inclination: 82.9 °
Period: 104.9 minutes
Semi major axis: 7366 km
RCS: 2.328 m2 (large)
Launch date: April 15, 1992
Source: Commonwealth of Independent States (former USSR) (CIS)
Launch site: PLESETSK MISSILE AND SPACE COMPLEX (PKMTR)
aabbcc
Your satellite tracking list
Your tracking list is empty




NASA's NSSDC Master Catalog

Two Line Element Set (TLE):
1 21937U 92020A   17323.48803130  .00000028  00000-0  14088-4 0  9993
2 21937  82.9322 271.3993 0032305 219.1122 279.2717 13.73145772282765
Source of the keplerian elements: AFSPC